Starlink 35178

operational
NORAD ID: 65610 Int'l Des: 2025-207 Owner: SPXS Country: US Constellation: starlink
NOTLE

Über Starlink 35178

Beschreibung wird geladen...

Live-Position

3D-Globus wird geladen...

Nächste Überflüge

Höhenverlauf

Altitude vs Time

uPlot chart will show altitude changes over time

Zweizeiliger Elementsatz

1 65610U 25207U 25309.14890497 .00041153 00000-0 10520-2 0 9999
2 65610 97.6041 13.4491 0001423 87.2573 272.8835 15.39334813 9364
Epoch: 5. Nov. 2025 • Age: 8 hours

Aktueller Status

Höhe 459.8 km
Geschwindigkeit 7.64 km/s
Subsatellitenpunkt 74.68°N, 124.27°E
Startdatum 13. Sept. 2025
Alter 0.1 years
Typ internet

Technische Details

Klassifizierung Payload
Masse 575.00 kg
Trockenmasse 530.00 kg
Gesamtmasse 575.00 kg
Länge 0.30 m
Durchmesser 4.10 m
Spannweite 29.00 m
Form Box + pan
Hersteller SPXS
Bus-Typ Starlink V2MO
Phasenstatus In Orbit
Besitzer/Staat SPXS/US

Große Konstellationen

Loading constellations...